Location: Wildlife_Club
(35.6000°N, 81.4330°W)
Time: 23:25:25
(UTC-04:00)

A-11 Canister half - Pass Details

Date: 25 June 2019
Orbit: 1514 x 1685 km, 47.2° (Epoch: 20 July)

Event Time Altitude Azimuth Distance (km) Brightness Sun altitude
Rises 14:19:42 0° 288° (WNW) 4,873 11.7 73.5°
Reaches altitude 10° 14:23:10 10° 295° (WNW) 3,863 11.3 73.0°
Maximum altitude 14:32:21 42° 4° (N) 2,142 10.3 71.5°
Drops below altitude 10° 14:41:13 10° 74° (ENE) 3,734 11.0 70.1°
Sets 14:44:30 0° 81° (E) 4,698 11.4 69.5°
